This is the latest recevied weather packets stored in our database for station/object OM6ACB-6. If no packets are shown the sender has not sent any weather packets the latest 10 day(s).
| Time | Temp. | Humidity | Pressure | Rain* | Wind** | Luminosity | Snow |
|---|---|---|---|---|---|---|---|
| 1777653102 | 16.11° C | 24% | 1026.9 hPa | 0 mm | - | - | - |
| 1777652502 | 16.67° C | 24% | 1027 hPa | 0 mm | - | - | - |
| 1777651902 | 16.67° C | 24% | 1027 hPa | 0 mm | - | - | - |
| 1777651301 | 16.11° C | 24% | 1027.1 hPa | 0 mm | - | - | - |
| 1777650701 | 16.67° C | 24% | 1027.2 hPa | 0 mm | - | - | - |
| 1777650101 | 16.67° C | 24% | 1027.3 hPa | 0 mm | - | - | - |
| 1777649500 | 16.67° C | 24% | 1027.4 hPa | 0 mm | - | - | - |
| 1777648900 | 16.67° C | 24% | 1027.6 hPa | 0 mm | - | - | - |
| 1777648300 | 16.67° C | 24% | 1027.6 hPa | 0 mm | - | - | - |
| 1777647700 | 16.67° C | 24% | 1027.7 hPa | 0 mm | - | - | - |
| 1777647099 | 19.44° C | 23% | 1028.1 hPa | 0 mm | - | - | - |
| 1777646499 | 16.67° C | 24% | 1027.7 hPa | 0 mm | - | - | - |
| 1777645899 | 15.56° C | 25% | 1027.6 hPa | 0 mm | - | - | - |
| 1777645299 | 15.56° C | 25% | 1027.7 hPa | 0 mm | - | - | - |
| 1777644698 | 16.11° C | 24% | 1027.7 hPa | 0 mm | - | - | - |
| 1777644098 | 16.11° C | 25% | 1027.7 hPa | 0 mm | - | - | - |
| 1777643497 | 16.67° C | 24% | 1027.9 hPa | 0 mm | - | - | - |
| 1777642897 | 16.67° C | 24% | 1028.1 hPa | 0 mm | - | - | - |
| 1777642297 | 18.89° C | 23% | 959.7 hPa | 0 mm | - | - | - |
| 1777641697 | 17.78° C | 24% | 1028.3 hPa | 0 mm | - | - | - |
| 1777641096 | 18.33° C | 23% | 1028.3 hPa | 0 mm | - | - | - |
| 1777640496 | 17.22° C | 24% | 1028.2 hPa | 0 mm | - | - | - |
| 1777639896 | 18.33° C | 23% | 1028.5 hPa | 0 mm | - | - | - |
| 1777639296 | 18.89° C | 23% | 1028.7 hPa | 0 mm | - | - | - |
| 1777638695 | 18.33° C | 23% | 1028.7 hPa | 0 mm | - | - | - |
* Rain latest hour (hover to see other rain measurements)
** Current wind speed in m/s (hover to see current wind gust speed)